Probability
3 3 3 3 3 0 0 0 0 0 0 0 0 0 0 0 0 0 0 0 0 0 0 0 0 0 0 0 0 0 0 6 3 0 3 3 3 0 3 3 0 0 3
3 3 3 3 3 0 0 0 0 0 0 0 0 0 0 0 0 0 0 0 0 0 0 0 0 0 0 0 0 0 0 0 0 3 3 3 0 0 0 0 0 0 0
3 3 3 3 3 3 0 0 0 0 0 0 0 0 0 0 0 0 0 0 0 0 0 0 0 0 0 0 0 0 0 0 3 3 0 3 6 3 3 0 0 0 0
3 0 3 3 3 3 0 0 0 0 0 0 0 0 0 0 0 0 0 0 0 0 0 0 0 0 0 0 0 0 0 0 0 0 3 3 6 0 3 3 3 0 0
0 0 0 0 0 0 0 0 0 0 0 0 0 0 0 0 0 0 0 0 0 0 0 0 0 0 0 0 0 0 0 3 6 3 3 3 6 3 3 3 3 0 0
0 0 0 0 0 0 0 0 0 0 0 0 0 0 0 0 0 0 0 0 0 0 0 0 0 0 0 0 0 0 0 0 0 0 0 0 0 0 0 0 0 3 0
0 0 0 0 0 0 0 0 0 0 0 0 0 0 0 0 0 0 0 0 0 0 0 0 0 0 0 0 0 0 0 0 0 0 0 0 0 0 0 0 0 0 0
0 0 0 0 0 0 0 0 0 0 0 0 0 0 0 0 0 0 0 0 0 0 0 0 0 0 0 0 0 0 0 0 0 0 0 0 0 0 0 0 0 0 0
0 0 0 0 0 0 0 0 0 0 0 0 0 0 0 0 0 0 0 0 0 0 0 0 0 0 0 0 0 0 0 0 0 0 0 0 0 0 0 0 0 0 0
0 0 0 0 0 0 0 0 0 0 0 0 0 0 0 0 0 0 0 0 0 0 0 0 0 0 0 0 0 0 0 0 0 0 0 0 0 0 0 0 0 0 0
0 0 0 0 0 0 0 0 0 0 0 0 0 0 0 0 0 0 0 0 0 0 0 0 0 0 0 0 0 0 0 0 0 0 0 0 0 0 0 0 0 0 0
0 0 0 0 0 0 0 0 0 0 0 0 0 0 0 0 0 0 0 0 0 0 0 0 0 0 0 0 0 0 0 0 0 0 0 0 0 0 0 0 0 0 0
0 0 0 0 0 0 0 0 0 0 0 0 0 0 0 0 0 0 0 0 0 0 0 0 0 0 0 0 0 0 0 0 0 0 0 0 0 0 0 0 0 0 0
0 0 0 0 0 0 0 0 0 0 0 0 0 0 0 0 0 0 0 0 0 0 0 0 0 0 0 0 0 0 0 0 0 0 0 0 0 0 0 0 0 0 0
0 0 0 0 0 0 0 0 0 0 0 0 0 0 0 0 0 0 0 0 0 0 0 0 0 0 0 0 0 0 0 0 0 0 0 0 0 0 0 0 0 0 0
0 0 0 0 0 0 0 0 0 0 0 0 0 0 0 0 0 0 0 0 0 0 0 0 0 0 0 0 0 0 0 0 0 0 0 0 0 0 0 0 0 0 0
0 0 0 0 0 0 0 0 0 0 0 0 0 0 0 0 0 0 0 0 0 0 0 0 0 0 0 0 0 0 0 0 0 0 0 0 0 0 0 0 0 0 0
0 0 0 0 0 0 0 0 0 0 0 0 0 0 0 0 0 0 0 0 0 0 0 0 0 0 0 0 0 0 0 0 0 0 0 0 0 0 0 0 0 0 0
0 0 0 0 0 0 0 0 0 0 0 0 0 0 0 0 0 0 0 0 0 0 0 0 0 0 0 0 0 0 0 0 0 0 0 0 0 0 0 0 0 0 0
0 0 0 0 0 0 0 0 0 0 0 0 0 0 0 0 0 0 0 0 0 0 0 0 0 0 0 0 0 0 0 0 0 0 0 0 0 0 0 0 0 0 0
0 0 0 0 0 0 0 0 0 0 0 0 0 0 0 0 0 0 0 0 0 0 0 0 0 0 0 0 0 0 0 0 0 0 0 0 0 0 0 0 0 0 0
0 0 0 0 0 0 0 0 0 0 0 0 0 0 0 0 0 0 0 0 0 0 0 0 0 0 0 0 0 0 0 0 0 0 0 0 0 0 0 0 0 0 0
0 0 0 0 0 0 0 0 0 0 0 0 0 0 0 0 0 0 0 0 0 0 0 0 0 0 0 0 0 0 0 0 0 0 0 0 0 0 0 0 0 0 0
0 0 0 0 0 0 0 0 0 0 0 0 0 0 0 0 0 0 0 0 0 0 0 0 0 0 0 0 0 0 0 0 0 0 0 0 0 0 0 0 0 0 0
0 0 0 0 0 0 0 0 0 0 0 0 0 0 0 0 0 0 0 0 0 0 0 0 0 0 0 0 0 0 0 0 0 0 0 0 0 0 0 0 0 0 0
0 0 0 0 0 0 0 0 0 0 0 0 0 0 0 0 0 0 0 0 0 0 0 0 0 0 0 0 0 0 0 0 0 0 0 0 0 0 0 0 0 0 0
Height
5872 5873 5874 5874 5875 5875 5875 5875 5876 5876 5876 5876 5875 5875 5875 5874 5873 5873 5872 5871 5870 5869 5868 5866 5865 5863 5861 5860 5858 5856 5854 5852 5850 5848 5846 5843 5841 5839 5837 5836 5834 5833 5831
5869 5870 5871 5872 5872 5872 5873 5873 5873 5873 5873 5873 5873 5872 5872 5871 5871 5870 5869 5868 5867 5866 5865 5863 5862 5860 5858 5856 5854 5852 5850 5848 5846 5844 5842 5839 5837 5835 5832 5830 5828 5826 5824
5866 5867 5868 5868 5869 5869 5869 5869 5870 5869 5869 5869 5869 5869 5869 5868 5868 5867 5866 5865 5864 5863 5861 5860 5858 5856 5855 5853 5851 5848 5846 5844 5841 5839 5837 5834 5832 5829 5827 5824 5822 5819 5817
5863 5864 5865 5865 5865 5866 5866 5866 5866 5865 5865 5865 5865 5866 5865 5865 5864 5864 5863 5862 5861 5859 5858 5856 5854 5852 5850 5848 5846 5844 5841 5839 5836 5833 5831 5828 5826 5823 5820 5817 5815 5812 5810
5860 5861 5861 5861 5862 5862 5862 5862 5861 5861 5861 5861 5862 5862 5861 5861 5861 5860 5859 5858 5857 5855 5853 5851 5850 5847 5845 5843 5841 5838 5835 5833 5830 5827 5824 5821 5818 5815 5812 5809 5806 5804 5801
5856 5857 5857 5858 5858 5858 5858 5857 5857 5857 5857 5857 5857 5857 5857 5857 5857 5856 5855 5854 5852 5851 5849 5847 5845 5842 5840 5837 5834 5832 5829 5826 5823 5820 5817 5813 5810 5807 5804 5800 5797 5795 5792
5853 5853 5854 5854 5854 5854 5854 5853 5853 5852 5852 5853 5853 5853 5853 5853 5852 5851 5850 5849 5847 5845 5843 5841 5839 5836 5834 5831 5828 5824 5821 5818 5815 5811 5808 5805 5801 5798 5795 5791 5787 5784 5781
5849 5849 5850 5850 5850 5850 5850 5850 5849 5849 5849 5849 5849 5849 5849 5848 5848 5847 5845 5844 5842 5840 5838 5835 5833 5830 5827 5824 5820 5817 5813 5810 5806 5802 5799 5795 5791 5787 5784 5780 5777 5774 5770
5845 5846 5846 5846 5846 5847 5846 5846 5846 5845 5845 5845 5845 5845 5844 5843 5843 5841 5840 5838 5836 5834 5831 5829 5826 5823 5819 5816 5813 5809 5805 5801 5797 5793 5788 5784 5780 5776 5773 5769 5765 5762 5759
5841 5841 5842 5842 5842 5843 5842 5842 5842 5842 5841 5841 5840 5840 5839 5838 5837 5836 5834 5832 5830 5828 5825 5821 5818 5815 5811 5807 5803 5800 5796 5791 5787 5783 5778 5774 5770 5766 5761 5757 5753 5749 5745
5837 5837 5837 5838 5838 5838 5838 5838 5838 5837 5837 5837 5836 5835 5834 5833 5831 5829 5827 5825 5823 5820 5817 5813 5810 5806 5802 5798 5794 5790 5785 5781 5777 5772 5767 5763 5758 5754 5749 5744 5739 5735 5731
5832 5833 5833 5833 5833 5833 5833 5833 5833 5833 5832 5831 5830 5829 5828 5826 5825 5823 5820 5818 5815 5812 5808 5805 5801 5797 5793 5788 5784 5780 5775 5770 5766 5761 5756 5751 5746 5741 5736 5731 5726 5720 5716
5827 5828 5828 5828 5829 5829 5829 5828 5828 5827 5827 5826 5825 5823 5822 5820 5818 5815 5813 5810 5806 5803 5799 5795 5791 5787 5783 5779 5774 5769 5764 5759 5754 5749 5744 5739 5734 5728 5723 5717 5712 5706 5701
5823 5823 5823 5823 5823 5823 5823 5823 5822 5822 5821 5819 5818 5817 5815 5813 5810 5807 5804 5801 5798 5794 5790 5786 5782 5777 5773 5768 5763 5758 5753 5747 5742 5736 5731 5726 5720 5715 5709 5703 5697 5692 5687
5817 5818 5818 5818 5818 5817 5817 5816 5816 5815 5814 5813 5811 5810 5807 5805 5802 5799 5795 5792 5788 5784 5780 5776 5771 5767 5762 5757 5752 5746 5740 5735 5729 5723 5718 5712 5706 5700 5694 5688 5682 5677 5671
5812 5812 5812 5812 5811 5811 5810 5810 5809 5808 5807 5805 5804 5802 5799 5796 5793 5790 5786 5782 5778 5774 5770 5765 5761 5756 5751 5745 5740 5734 5728 5722 5716 5710 5704 5698 5692 5686 5680 5674 5667 5661 5655
5805 5806 5805 5805 5805 5804 5804 5803 5802 5801 5799 5797 5795 5793 5790 5787 5784 5780 5776 5772 5768 5763 5759 5755 5750 5744 5739 5733 5727 5721 5715 5709 5702 5696 5690 5684 5677 5671 5665 5659 5652 5646 5639
5799 5799 5799 5799 5798 5798 5797 5796 5794 5793 5791 5789 5787 5784 5781 5778 5774 5770 5766 5762 5757 5753 5748 5743 5738 5732 5726 5720 5714 5708 5702 5695 5689 5682 5676 5670 5663 5657 5651 5644 5637 5630 5624
5792 5792 5792 5791 5791 5790 5789 5788 5786 5785 5783 5780 5778 5775 5771 5768 5764 5760 5755 5751 5746 5742 5737 5731 5726 5720 5714 5708 5702 5695 5689 5682 5676 5669 5663 5656 5649 5643 5636 5629 5622 5615 5608
5785 5785 5784 5784 5783 5782 5781 5779 5778 5776 5773 5771 5768 5765 5761 5757 5753 5749 5745 5740 5735 5730 5725 5720 5714 5708 5702 5696 5689 5682 5676 5669 5662 5656 5649 5642 5635 5628 5622 5615 5608 5601 5595
5777 5777 5776 5776 5775 5773 5772 5770 5769 5766 5764 5761 5758 5754 5750 5746 5742 5738 5733 5728 5724 5719 5713 5708 5702 5696 5689 5683 5676 5669 5662 5656 5649 5642 5636 5629 5622 5615 5608 5601 5595 5588 5581
5769 5769 5768 5767 5766 5764 5763 5761 5759 5757 5754 5751 5747 5743 5739 5735 5731 5726 5722 5717 5712 5706 5701 5695 5689 5683 5677 5670 5663 5656 5650 5643 5636 5630 5623 5616 5609 5602 5596 5589 5582 5575 5568
5761 5760 5759 5758 5757 5755 5753 5751 5749 5746 5743 5740 5736 5732 5728 5724 5719 5715 5710 5705 5699 5694 5688 5682 5676 5670 5663 5657 5650 5643 5637 5630 5624 5617 5610 5604 5597 5590 5584 5577 5570 5563 5556
5752 5751 5750 5749 5747 5745 5743 5741 5738 5735 5732 5728 5725 5721 5717 5712 5708 5703 5698 5692 5687 5681 5676 5669 5663 5657 5650 5644 5637 5630 5624 5617 5610 5604 5598 5591 5585 5578 5572 5565 5559 5552 5545
5743 5742 5740 5739 5737 5735 5733 5730 5727 5724 5721 5717 5713 5709 5705 5700 5695 5690 5685 5680 5674 5669 5663 5657 5650 5644 5637 5631 5624 5618 5611 5604 5598 5592 5586 5579 5573 5567 5560 5554 5547 5540 5533
5733 5732 5730 5728 5726 5724 5722 5719 5716 5713 5709 5705 5701 5697 5692 5688 5683 5678 5673 5667 5662 5656 5650 5644 5638 5631 5625 5618 5612 5605 5599 5593 5586 5580 5574 5568 5562 5556 5549 5543 5536 5529 5522
Wind_Speed
12 12 11 11 11 10 10 9 10 10 10 10 10 10 10 9 9 9 9 9 10 10 11 11 12 12 13 13 14 15 15 16 16 17 18 18 18 19 20 21 21 22 24
13 13 12 12 12 12 11 11 11 11 11 11 11 11 11 10 10 10 10 10 11 12 13 13 14 14 15 15 16 16 17 18 18 19 20 20 21 22 22 23 24 25 26
14 13 13 13 13 13 12 12 13 13 13 13 13 12 12 11 11 11 11 12 13 14 14 15 15 16 16 17 18 18 19 20 21 21 22 22 23 24 25 26 26 27 28
14 14 14 14 14 14 14 14 14 14 14 13 13 13 13 13 12 13 13 13 14 15 15 16 16 17 18 19 20 21 21 22 23 24 24 25 26 27 28 29 29 29 30
14 14 14 15 15 15 14 14 14 14 14 14 14 14 14 14 14 14 14 14 15 16 16 17 18 19 20 21 22 23 23 24 25 26 27 28 29 29 30 31 31 32 32
15 15 14 15 15 15 15 15 14 15 15 15 14 14 14 14 14 14 15 16 16 17 18 19 20 21 22 23 24 25 26 27 27 28 29 30 31 31 32 32 33 33 34
15 15 15 14 14 15 15 15 15 14 14 14 14 15 15 15 15 15 16 17 18 19 20 21 22 23 24 25 26 27 28 29 30 30 31 32 33 33 33 34 34 35 36
15 15 15 14 14 15 15 14 14 14 15 15 14 14 15 16 17 17 18 19 19 21 22 23 24 25 26 27 28 29 30 31 32 33 34 35 35 36 36 36 37 38 39
15 15 15 15 15 15 15 15 15 15 14 15 15 15 16 17 18 19 20 20 22 23 25 26 27 28 29 30 31 31 32 34 34 35 36 36 37 38 38 39 40 40 41
16 16 17 16 16 16 16 16 16 15 15 15 16 17 18 19 20 21 21 23 24 26 27 28 30 31 31 33 33 34 35 36 36 37 37 38 38 39 40 42 43 44 44
16 17 17 18 17 17 17 17 16 16 16 17 18 19 20 21 21 22 24 25 27 28 30 31 32 33 34 35 35 36 37 38 38 39 39 40 41 42 44 45 46 46 47
17 17 17 18 18 17 17 17 17 18 18 19 20 21 21 22 23 25 26 28 29 31 32 33 34 35 36 36 37 37 38 40 40 41 42 43 44 45 46 47 47 48 48
18 17 17 17 17 18 18 18 19 19 20 21 22 23 23 24 26 27 29 30 31 33 34 35 36 36 37 37 38 40 41 42 43 44 45 45 46 47 48 48 49 49 50
19 19 18 19 19 19 20 20 21 22 22 23 24 24 25 27 28 30 31 32 33 34 36 36 37 37 38 39 40 42 43 44 45 46 46 47 48 48 49 49 50 50 51
20 20 21 20 20 21 22 22 23 23 24 25 25 26 28 29 30 31 33 34 35 36 37 38 38 39 40 41 43 45 46 47 47 48 48 49 49 50 50 51 51 51 51
19 20 21 21 21 21 22 23 24 25 26 26 27 28 29 30 31 33 35 36 37 38 39 39 40 41 43 44 46 47 48 49 49 49 50 50 50 51 51 51 52 52 52
21 22 21 21 21 21 22 23 24 25 26 27 28 30 31 32 34 35 37 38 39 40 40 41 42 44 45 46 47 48 49 50 50 50 50 50 50 51 51 52 52 52 53
22 23 23 23 23 23 24 25 25 26 27 29 30 32 33 35 36 37 38 40 40 41 42 43 44 45 47 48 49 49 50 50 50 50 50 50 51 51 51 52 52 52 52
23 23 24 24 24 25 25 26 27 28 30 31 33 34 36 37 38 39 40 40 40 41 43 44 45 47 48 49 49 50 51 51 51 51 50 51 51 51 51 51 51 51 51
23 24 24 25 25 26 27 28 29 30 32 33 35 36 37 38 39 40 40 40 41 43 44 45 47 48 49 49 50 51 51 51 51 51 50 51 51 51 50 50 49 49 50
24 25 26 26 27 28 28 29 31 32 34 35 37 38 39 39 40 41 41 42 43 44 45 46 47 48 49 50 51 51 51 50 50 50 50 50 50 50 49 48 49 49 48
25 26 27 28 28 29 30 32 33 35 36 37 38 38 39 40 41 41 42 44 45 46 47 47 48 49 50 50 51 51 51 50 49 49 49 49 49 48 47 47 47 47 47
27 27 28 29 30 31 32 33 35 36 37 38 38 39 40 41 42 43 44 45 46 47 47 48 49 50 50 50 50 50 50 50 49 49 48 48 47 46 46 46 46 46 47
28 29 30 31 32 32 34 35 36 37 38 38 39 40 41 42 43 44 45 46 47 47 48 49 49 50 50 49 50 50 50 49 49 48 47 46 46 46 46 45 45 46 46
30 30 31 32 32 33 34 36 37 38 39 39 40 41 42 43 44 45 46 47 47 48 48 49 49 49 49 49 49 49 48 48 47 46 45 45 45 44 45 45 45 45 45
31 32 32 33 33 34 35 36 38 39 40 41 41 42 43 44 45 46 47 47 47 47 48 48 48 49 49 48 48 48 47 46 45 45 44 44 44 44 44 44 45 45 45
Wind_Direction
237 239 240 241 243 245 248 251 253 259 263 265 268 271 275 280 282 284 288 292 296 301 304 307 310 312 312 313 312 311 309 308 306 305 302 300 298 294 293 292 290 288 285
241 241 242 245 248 249 252 254 259 262 264 267 268 270 272 277 282 285 288 292 296 299 302 304 305 307 308 308 309 310 308 307 307 305 303 300 297 296 295 292 291 289 287
243 243 244 246 250 252 256 259 261 263 264 265 266 270 274 278 281 284 288 293 297 300 302 304 304 305 306 307 307 307 306 305 304 303 302 300 298 297 296 295 293 291 289
246 245 247 248 251 252 256 261 262 264 264 264 265 269 274 278 281 284 288 292 296 299 301 302 303 304 304 305 306 307 306 306 304 303 301 300 299 298 297 296 294 292 291
247 248 250 251 252 255 258 263 264 266 266 263 265 270 273 277 280 284 288 291 296 298 300 302 303 304 305 306 306 306 306 305 303 302 301 300 299 298 297 296 294 293 292
246 248 252 253 255 257 261 265 266 265 266 266 268 271 275 278 281 286 290 293 297 299 301 303 305 305 306 306 306 305 305 304 303 302 301 300 300 298 297 295 294 293 292
247 248 252 257 259 262 264 266 267 266 265 266 268 270 274 279 284 288 291 295 298 300 301 303 304 305 305 305 305 305 305 305 304 303 302 301 300 299 298 296 295 294 293
248 250 253 258 262 262 263 266 266 267 269 268 268 272 276 280 286 289 292 296 298 300 302 303 304 305 305 304 305 305 305 305 304 303 302 302 301 299 298 296 295 294 293
251 252 256 260 261 261 261 265 268 271 271 271 272 276 280 283 286 289 292 295 298 301 303 304 304 304 304 304 304 305 305 305 304 303 302 301 300 298 297 295 294 294 293
256 256 258 259 261 262 262 265 267 268 272 276 277 280 282 285 288 291 293 296 299 301 303 304 304 304 304 305 304 304 304 304 303 303 302 301 300 299 298 297 296 295 294
258 259 259 260 262 263 263 265 266 270 274 278 280 282 285 288 291 292 295 297 300 302 303 304 305 305 305 305 305 304 304 304 304 303 302 301 300 300 299 299 298 297 296
258 261 261 261 262 262 263 265 268 272 275 278 282 284 286 289 292 294 296 299 301 303 304 305 305 305 305 305 305 305 305 305 304 303 303 302 301 301 300 300 299 298 297
259 261 260 262 263 264 265 268 270 273 276 279 283 286 288 291 293 295 298 300 301 303 304 304 305 305 305 305 305 305 305 306 305 304 303 302 302 302 301 300 299 298 298
258 261 264 265 266 267 269 271 273 275 278 281 284 288 290 293 295 296 299 301 302 303 304 304 305 305 305 305 305 305 306 306 305 304 303 303 302 302 302 300 300 299 298
260 263 265 267 267 270 271 272 275 276 279 283 287 289 292 294 296 299 300 301 302 302 303 304 304 305 305 305 306 306 306 306 305 304 303 303 303 302 302 301 300 299 299
265 267 268 268 270 272 273 275 279 282 284 285 288 290 293 295 297 299 300 301 302 302 303 304 304 305 305 305 306 306 306 306 305 304 304 303 303 303 303 302 302 300 300
265 267 269 270 271 274 276 278 281 284 286 288 290 292 294 297 298 299 300 301 302 302 303 304 304 305 305 306 306 307 307 306 306 305 305 304 304 304 304 303 302 301 301
266 267 269 270 272 275 277 280 282 284 287 289 292 294 296 297 298 299 300 301 301 302 303 304 304 305 306 307 307 307 307 307 307 306 306 305 305 305 305 305 304 303 302
266 267 269 271 273 276 279 281 284 286 288 290 293 295 297 298 298 299 301 301 302 302 303 304 305 306 307 307 308 308 308 308 307 306 306 306 307 306 306 306 305 304 304
266 268 271 273 275 277 280 283 286 288 290 293 294 296 297 298 298 300 300 301 302 303 303 304 305 306 307 307 308 309 309 308 308 307 307 307 308 308 308 307 307 306 306
270 272 274 275 277 279 281 284 287 289 291 293 294 296 297 297 298 299 300 301 302 303 304 304 305 307 307 308 308 309 309 309 308 308 309 309 309 309 308 308 309 308 308
273 274 276 277 280 282 284 287 289 290 291 293 294 295 296 297 298 299 300 301 302 303 304 305 306 307 307 308 309 309 309 309 309 309 309 310 310 309 309 309 310 310 310
274 276 278 280 282 284 285 287 289 290 292 294 295 296 296 298 299 300 301 302 303 304 304 305 306 307 307 308 309 309 309 309 309 309 309 310 310 310 310 310 311 311 311
276 277 279 281 283 284 286 288 290 291 293 293 295 296 297 298 300 301 301 303 303 304 305 306 307 308 308 308 309 309 309 309 309 309 309 310 310 310 310 310 311 311 312
277 279 281 284 285 287 288 290 291 293 293 294 295 296 298 299 300 301 302 303 304 305 306 307 308 308 309 309 309 309 309 309 310 310 310 309 310 310 310 311 311 312 313
278 280 282 285 286 288 289 291 293 294 295 296 296 297 298 300 301 302 303 303 304 305 307 308 308 309 309 309 309 309 309 309 310 310 310 310 310 311 311 312 313 313 313